Miscellaneous Local Product
Issued by NWS North Platte, NE

Home | Current Version | Previous Version | Text Only | Print | Product List | Glossary On
Versions: 1 2 3 4 5 6 7 8 9 10 11 12 13 14 15 16 17 18 19 20 21 22 23 24 25 26 27 28 29 30 31 32 33 34 35 36 37 38 39 40 41 42 43 44 45 46 47 48 49 50
000
AXUS43 KLBF 250610
MISLBF


WESTERN AND NORTH CENTRAL NEBRASKA HOURLY WEATHER ROUNDUP
NATIONAL WEATHER SERVICE NORTH PLATTE NE
100 AM CDT MON JUL 25 2016

NOTE: "FAIR" INDICATES FEW OR NO CLOUDS BELOW 12,000 FEET WITH NO
SIGNIFICANT WEATHER AND/OR OBSTRUCTIONS TO VISIBILITY.

NOTE: STATIONS NOT REPORTING VARIABLES SUCH AS SKY/WEATHER OR
PRESSURE ARE PROVIDED BY RAWS AND APRS NETWORKS AND ARE NOT UNDER
NATIONAL WEATHER SERVICE QUALITY CONTROL.

...OBSERVATIONS IN AND NEAR THE EASTERN PANHANDLE OF NEBRASKA...

CITY           SKY/WX    TMP DP  RH WIND       PRES   REMARKS
PINE RIDGE     CLEAR     72  55  55 S17       30.14S
CHADRON        CLEAR     73  54  51 S18G24    30.13S
ALLIANCE       CLEAR     60  56  86 S8        30.19R
SIDNEY         CLEAR     55  52  89 W6        30.23S
CRESCENT LAKE    N/A     65  59  82 CALM        N/A
$$

...OBSERVATIONS IN NORTHERN NEBRASKA AND FAR SOUTHERN SOUTH DAKOTA...

CITY           SKY/WX    TMP DP  RH WIND       PRES   REMARKS
WINNER         FAIR      73  55  53 S13       30.11F
VALENTINE      CLEAR     67  56  67 SE3       30.15R
THEDFORD       CLOUDY    68  61  77 S5        30.17S
AINSWORTH      PTCLDY    64  58  81 S5        30.15S
O`NEILL        MOCLDY    67  59  74 CALM      30.14R
ORD            PTCLDY    66  60  81 CALM      30.11S
BROKEN BOW     CLOUDY    63  62  97 CALM      30.14R
VALENTINE NWR    N/A     65  56  74 CALM        N/A
BUTTE            N/A     67  60  77 S5          N/A
HALSEY           N/A     69  60  72 S5          N/A
EWING            N/A     62  59  91 CALM        N/A
$$

...OBSERVATIONS IN SOUTHWEST NEBRASKA AND FAR NORTHEAST COLORADO...

CITY           SKY/WX    TMP DP  RH WIND       PRES   REMARKS
WRAY           FAIR      68  59  73 S13G22    30.16F
HOLYOKE        FAIR      64  54  68 W15       30.19R
IMPERIAL       CLOUDY    68  58  70 NE7       30.16R
OGALLALA       CLOUDY    69  60  73 E8        30.15S
NORTH PLATTE   PTCLDY    67  62  84 E5        30.16R
MCCOOK         CLOUDY    74  58  57 NE38G49   30.09F
LEXINGTON      CLOUDY    71  63  76 E3        30.13S
STAPLETON        N/A     67  62  84 CALM        N/A
GOTHENBURG       N/A     70  59  68 CALM        N/A
CALLAWAY         N/A     67  62  85 E3          N/A
$$

...OBSERVATIONS IN CENTRAL LINCOLN COUNTY AREA...

CITY           SKY/WX    TMP DP  RH WIND       PRES   REMARKS
N.P. AIRPORT   PTCLDY    67  62  84 E5        30.16R
N.P. DOWNTOWN    N/A     70  63  78 NE3         N/A
N.P. SOUTHEAST   N/A     69  62  78 CALM        N/A
N.P. HILLCREST   N/A     68  61  78 E8          N/A
$$

...SOME OBSERVATIONS FROM AROUND THE REGION...

CITY           SKY/WX    TMP DP  RH WIND       PRES   REMARKS
DENVER         PTCLDY    62  55  77 SE15      30.29R
LARAMIE        CLEAR     57  53  86 SE26G38   30.33R
CHEYENNE       CLEAR     61  54  77 S21G28    30.32S
SCOTTSBLUFF    CLEAR     62  55  77 VRB3      30.20R
RAPID CITY     CLEAR     65  51  60 S8        30.12R
BISMARCK       CLEAR     64  59  83 SE5       30.04R
PIERRE         CLEAR     66  53  63 SE5       30.06S
SIOUX FALLS    CLEAR     67  61  81 W3        30.09R
OMAHA          CLOUDY    71  66  84 N7        30.06R
GRAND ISLAND   MOCLDY    68  63  84 NE6       30.12S
KANSAS CITY    CLOUDY    78  70  76 NE8       29.99F
WICHITA        CLOUDY    87  70  56 E3        29.98  THUNDER HX  92
OKLAHOMA CITY  PTCLDY    80  71  74 S5        29.97F
DALLAS         PTCLDY    86  70  58 SE7       29.93F HX  90
AMARILLO       MOCLDY    78  59  51 NW7       30.13R
DODGE CITY     CLOUDY    74  66  76 SE15      30.04F
HAYS           CLOUDY    72  59  64 NE10      30.02F
GOODLAND       CLOUDY    65  63  93 E9        30.16F
$$




USA.gov is the U.S. government's official web portal to all federal, state and local government web resources and services.